Location: ????? ??????
(37.8317°N, 23.8750°E)
Time: 16:55:22
(UTC+00:00)

ISS - Pass Details

Date: 20 January 2021
Orbit: 417 x 422 km, 51.6° (Epoch: 01 March)

Event Time Altitude Azimuth Distance (km) Brightness Sun altitude
Rises 17:40:50 0° 268° (W) 2,365 1.5 -24.7°
Reaches altitude 10° 17:43:21 10° 287° (WNW) 1,504 -0.1 -25.2°
Enters shadow 17:45:11 18° 319° (NW) 1,114 -1.3 -25.5°
